When you browse on this site, cookies collect data to enhance your experience and personalize the content and advertising you see.
Visit our Privacy Policy to learn more. By continuing to use the site, you agree to this use of cookies and data.
  • In Sweden
  • List of Countries
  • For 7 days
  • Water Temperature
  • Satellite Maps
  • Weather Map
  • Weather Widgets
  • user-avatar
    Login

    Hourly Weather Shkoder

    Today, 21 July, Sunday

    Time Temperature Precipitation Wind Pressure Humidity
    00:00 +23°C° 0 mm 1 mps 743 mmHg 58%
    01:00 +23°C° 0 mm 1 mps 743 mmHg 57%
    02:00 +22°C° 0 mm 1 mps 743 mmHg 57%
    03:00 +22°C° 0 mm 1 mps 743 mmHg 57%
    04:00 +22°C° 0 mm 1 mps 743 mmHg 57%
    05:00 +24°C° 0 mm 1 mps 743 mmHg 54%
    06:00 +25°C° 0 mm 1 mps 743 mmHg 51%
    07:00 +27°C° 0 mm 1 mps 743 mmHg 48%
    08:00 +29°C° 0 mm 1 mps 743 mmHg 45%
    09:00 +31°C° 0 mm 1 mps 743 mmHg 41%
    10:00 +32°C° 0 mm 1 mps 743 mmHg 37%
    11:00 +34°C° 0 mm 2 mps 743 mmHg 36%
    12:00 +34°C° 0 mm 2 mps 743 mmHg 35%
    13:00 +35°C° 0 mm 3 mps 743 mmHg 34%
    14:00 +34°C° 0 mm 3 mps 743 mmHg 35%
    15:00 +34°C° 0 mm 3 mps 743 mmHg 37%
    16:00 +34°C° 0 mm 2 mps 743 mmHg 39%
    17:00 +31°C° 0 mm 2 mps 743 mmHg 45%
    18:00 +29°C° 0 mm 1 mps 742 mmHg 50%
    19:00 +27°C° 0 mm 1 mps 742 mmHg 56%
    20:00 +26°C° 0 mm 1 mps 742 mmHg 57%
    21:00 +25°C° 0 mm 1 mps 743 mmHg 58%
    22:00 +25°C° 0 mm 1 mps 743 mmHg 60%
    23:00 +25°C° 0 mm 1 mps 743 mmHg 59%

    Tomorrow, 22 July, Monday

    Time Temperature Precipitation Wind Pressure Humidity
    00:00 +25°C° 0 mm 1 mps 743 mmHg 59%
    01:00 +24°C° 0 mm 2 mps 743 mmHg 59%
    02:00 +24°C° 0 mm 2 mps 743 mmHg 59%
    03:00 +24°C° 0 mm 2 mps 743 mmHg 60%
    04:00 +24°C° 0 mm 2 mps 743 mmHg 61%
    05:00 +25°C° 0 mm 2 mps 743 mmHg 58%
    06:00 +27°C° 0 mm 2 mps 743 mmHg 55%
    07:00 +29°C° 0 mm 1 mps 743 mmHg 52%
    08:00 +30°C° 0 mm 2 mps 743 mmHg 47%
    09:00 +32°C° 0 mm 2 mps 743 mmHg 41%
    10:00 +34°C° 0 mm 2 mps 743 mmHg 36%
    11:00 +35°C° 0 mm 2 mps 743 mmHg 34%
    12:00 +36°C° 0 mm 3 mps 743 mmHg 32%
    13:00 +36°C° 0 mm 3 mps 743 mmHg 30%
    14:00 +36°C° 0 mm 2 mps 743 mmHg 31%
    15:00 +36°C° 0 mm 2 mps 742 mmHg 33%
    16:00 +36°C° 0 mm 2 mps 742 mmHg 34%
    17:00 +34°C° 0 mm 2 mps 742 mmHg 39%
    18:00 +31°C° 0 mm 2 mps 742 mmHg 44%
    19:00 +29°C° 0 mm 2 mps 742 mmHg 50%
    20:00 +28°C° 0 mm 2 mps 742 mmHg 53%
    21:00 +27°C° 0 mm 3 mps 743 mmHg 57%
    22:00 +26°C° 0 mm 3 mps 743 mmHg 61%
    23:00 +25°C° 0 mm 3 mps 743 mmHg 63%

    Day after tomorrow, 23 July, Tuesday

    Time Temperature Precipitation Wind Pressure Humidity
    00:00 +25°C° 0 mm 3 mps 742 mmHg 65%
    01:00 +24°C° 0 mm 3 mps 742 mmHg 67%
    02:00 +24°C° 0 mm 3 mps 742 mmHg 68%
    03:00 +22°C° 0 mm 3 mps 742 mmHg 68%
    04:00 +22°C° 0 mm 3 mps 742 mmHg 68%
    05:00 +24°C° 0 mm 3 mps 742 mmHg 64%
    06:00 +25°C° 0 mm 3 mps 742 mmHg 60%
    07:00 +26°C° 0 mm 3 mps 742 mmHg 56%
    08:00 +28°C° 0 mm 3 mps 742 mmHg 49%
    09:00 +30°C° 0 mm 3 mps 742 mmHg 42%
    10:00 +31°C° 0 mm 3 mps 742 mmHg 35%
    11:00 +33°C° 0 mm 3 mps 742 mmHg 33%
    12:00 +34°C° 0 mm 3 mps 741 mmHg 31%
    13:00 +35°C° 0 mm 3 mps 741 mmHg 29%
    14:00 +35°C° 0 mm 3 mps 741 mmHg 30%
    15:00 +35°C° 0 mm 3 mps 741 mmHg 30%
    16:00 +35°C° 0 mm 3 mps 740 mmHg 31%
    17:00 +33°C° 0 mm 3 mps 740 mmHg 36%
    18:00 +30°C° 0 mm 3 mps 740 mmHg 41%
    19:00 +28°C° 0 mm 4 mps 740 mmHg 46%
    20:00 +27°C° 0 mm 4 mps 741 mmHg 49%
    21:00 +26°C° 0 mm 4 mps 741 mmHg 52%
    22:00 +25°C° 0 mm 4 mps 741 mmHg 55%
    23:00 +23°C° 0 mm 4 mps 741 mmHg 58%

    24 July, Wednesday

    Time Temperature Precipitation Wind Pressure Humidity
    00:00 +22°C° 0 mm 3 mps 741 mmHg 61%
    01:00 +22°C° 0 mm 3 mps 741 mmHg 64%
    02:00 +21°C° 0 mm 3 mps 740 mmHg 65%
    03:00 +21°C° 0 mm 3 mps 740 mmHg 67%
    04:00 +21°C° 0 mm 3 mps 740 mmHg 68%
    05:00 +22°C° 0 mm 3 mps 740 mmHg 64%
    06:00 +24°C° 0 mm 3 mps 740 mmHg 61%
    07:00 +26°C° 0 mm 3 mps 741 mmHg 57%
    08:00 +27°C° 0 mm 3 mps 741 mmHg 52%
    09:00 +29°C° 0 mm 3 mps 741 mmHg 48%
    10:00 +30°C° 0 mm 3 mps 741 mmHg 43%
    11:00 +31°C° 0 mm 3 mps 741 mmHg 41%
    12:00 +33°C° 0 mm 3 mps 741 mmHg 39%
    13:00 +34°C° 0 mm 3 mps 740 mmHg 36%
    14:00 +34°C° 0 mm 3 mps 740 mmHg 37%
    15:00 +34°C° 0 mm 4 mps 740 mmHg 38%
    16:00 +34°C° 0 mm 4 mps 740 mmHg 38%
    17:00 +32°C° 0 mm 4 mps 740 mmHg 43%
    18:00 +30°C° 0 mm 3 mps 740 mmHg 49%
    19:00 +28°C° 0 mm 3 mps 740 mmHg 54%
    20:00 +27°C° 0 mm 3 mps 740 mmHg 57%
    21:00 +26°C° 0 mm 3 mps 740 mmHg 60%
    22:00 +25°C° 0 mm 3 mps 741 mmHg 63%
    23:00 +24°C° 0 mm 3 mps 741 mmHg 65%

    25 July, Thursday

    Time Temperature Precipitation Wind Pressure Humidity
    00:00 +24°C° 0 mm 3 mps 740 mmHg 67%
    01:00 +22°C° 0 mm 3 mps 740 mmHg 68%
    02:00 +22°C° 0 mm 3 mps 740 mmHg 70%
    03:00 +21°C° 0 mm 3 mps 740 mmHg 72%
    04:00 +21°C° 0 mm 3 mps 740 mmHg 74%
    05:00 +22°C° 0 mm 3 mps 740 mmHg 69%
    06:00 +25°C° 0 mm 3 mps 741 mmHg 64%
    07:00 +26°C° 0 mm 3 mps 741 mmHg 59%
    08:00 +28°C° 0 mm 3 mps 741 mmHg 53%
    09:00 +30°C° 0 mm 3 mps 741 mmHg 47%
    10:00 +31°C° 0 mm 3 mps 741 mmHg 41%
    11:00 +32°C° 0 mm 2 mps 741 mmHg 38%
    12:00 +34°C° 0 mm 2 mps 740 mmHg 35%
    13:00 +35°C° 0 mm 2 mps 740 mmHg 32%
    14:00 +35°C° 0 mm 2 mps 740 mmHg 33%
    15:00 +35°C° 0 mm 2 mps 740 mmHg 33%
    16:00 +35°C° 0 mm 2 mps 740 mmHg 34%
    17:00 +32°C° 0 mm 2 mps 740 mmHg 40%
    18:00 +30°C° 0 mm 1 mps 740 mmHg 46%
    19:00 +28°C° 0 mm 1 mps 740 mmHg 52%
    20:00 +27°C° 0 mm 1 mps 740 mmHg 55%
    21:00 +26°C° 0 mm 1 mps 740 mmHg 57%
    22:00 +25°C° 0 mm 2 mps 740 mmHg 60%
    23:00 +25°C° 0 mm 2 mps 740 mmHg 61%

    26 July, Friday

    Time Temperature Precipitation Wind Pressure Humidity
    00:00 +25°C° 0 mm 2 mps 740 mmHg 62%
    01:00 +24°C° 0 mm 2 mps 740 mmHg 63%
    02:00 +24°C° 0 mm 2 mps 740 mmHg 64%
    03:00 +24°C° 0 mm 2 mps 740 mmHg 65%
    04:00 +23°C° 0 mm 2 mps 740 mmHg 65%
    05:00 +25°C° 0 mm 2 mps 740 mmHg 61%
    06:00 +27°C° 0 mm 2 mps 740 mmHg 56%
    07:00 +28°C° 0 mm 1 mps 740 mmHg 52%
    08:00 +30°C° 0 mm 1 mps 740 mmHg 47%
    09:00 +32°C° 0 mm 1 mps 740 mmHg 42%
    10:00 +34°C° 0 mm 1 mps 740 mmHg 37%
    11:00 +34°C° 0 mm 1 mps 739 mmHg 36%
    12:00 +36°C° 0 mm 2 mps 739 mmHg 34%
    13:00 +36°C° 0 mm 3 mps 739 mmHg 32%
    14:00 +36°C° 0 mm 3 mps 738 mmHg 34%
    15:00 +36°C° 0 mm 3 mps 738 mmHg 35%
    16:00 +35°C° 0 mm 3 mps 738 mmHg 36%
    17:00 +32°C° 0 mm 2 mps 738 mmHg 43%
    18:00 +30°C° 0 mm 2 mps 738 mmHg 49%
    19:00 +28°C° 0 mm 1 mps 737 mmHg 56%
    20:00 +27°C° 0 mm 1 mps 738 mmHg 58%
    21:00 +27°C° 0 mm 1 mps 738 mmHg 59%
    22:00 +26°C° 0 mm 1 mps 738 mmHg 60%
    23:00 +24°C° 0 mm 0 mps 738 mmHg 60%
    Show more